AirNav   Everest Fuels
 
 1672 users online  

42VA Virginia Beach Airport
Virginia Beach, Virginia, USA

GOING TO VIRGINIA BEACH?


FAA INFORMATION EFFECTIVE 10 SEPTEMBER 2020

Location

FAA Identifier: 42VA
Lat/Long: 36-40-44.0550N 076-01-57.9950W
36-40.734250N 076-01.966583W
36.6789042,-76.0327764
(estimated)
Elevation: 15 ft. / 5 m (estimated)
Variation: 10W (1990)
From city: 4 miles SE of VIRGINIA BEACH, VA
Time zone: UTC -4 (UTC -5 during Standard Time)
Zip code: 23457

Airport Operations

Airport use: Private use. Permission required prior to landing
Activation date: 04/1993
Control tower: no
ARTCC: WASHINGTON CENTER
FSS: LEESBURG FLIGHT SERVICE STATION
Attendance: UNATNDD
Wind indicator: yes
Segmented circle: no

Airport Communications

WX ASOS at NTU (9 nm N): PHONE DSN 433-3619 or 757-433-3619
WX AWOS-3 at CPK (14 nm W): 123.675 (757-204-4290)
WX ASOS at ORF (15 nm NW): PHONE 757-460-9348
WX AWOS-3 at ONX (17 nm S): 119.775 (252-453-8939)

Nearby radio navigation aids

VOR radial/distance  VOR name  Freq  Var
ORFr155/15.1NORFOLK VORTAC116.9007W
ECGr022/26.2ELIZABETH CITY VOR/DME112.5007W

 
NDB name  Hdg/Dist  Freq  Var  ID
INGLE142/14.332909WOR --- .-.
WOODVILLE037/28.025410WLLW .-.. .-.. .--

Airport Services

Runway Information

Runway 11/29

Dimensions: 4845 x 190 ft. / 1477 x 58 m
Surface: turf, in good condition
RUNWAY 11  RUNWAY 29
Latitude: 36-40.824167N36-40.644333N
Longitude: 076-02.449500W076-01.483667W
Elevation: 10.0 ft.9.0 ft.
Traffic pattern: leftleft

Airport Ownership and Management from official FAA records

Ownership: Privately-owned
Owner: VIRGINIA BEACH ARPT, LLC
4455 SOUTH BLVD
VIRGINIA BEACH, VA 23452
Phone 757-490-3157
Manager: GERALD YAGEN
4455 SOUTH BLVD
VIRGINIA BEACH, VA 23452
Phone 757-490-3157
EXTENSION 500.

Airport Operational Statistics

Aircraft based on the field: 54
Single engine airplanes: 50
Multi engine airplanes: 4
    

Additional Remarks

AWOS - PHONE 757-204-2683, FREQUENCY 119.925
FOR CD CTC WASHINGTON ARTCC AT 703-771-3587.

Instrument Procedures

There are no published instrument procedures at 42VA.

Some nearby airports with instrument procedures:

KNTU - Oceana Naval Air Station (Apollo Soucek Field) (9 nm N)
KCPK - Chesapeake Regional Airport (14 nm W)
KORF - Norfolk International Airport (15 nm NW)
KONX - Currituck County Regional Airport (17 nm S)
KNGU - Norfolk Naval Station (Chambers Field) (20 nm NW)
 
Loc | Ops | Rwys | IFR | FBO | Links
Com | Nav | Svcs | Stats | Notes
Area around 42VA (Virginia Beach Airport)
 
Road maps at: MapQuest Bing Google
 
Aerial photo
WARNING: Photo may not be current or correct
Aerial photo of 42VA (Virginia Beach Airport)
Photo by Jerry Yagen
Photo taken 10-Nov-2012
looking east.

Do you have a better or more recent aerial photo of Virginia Beach Airport that you would like to share? If so, please send us your photo.

 
Sectional chart

 
Airport distance calculator
Flying to Virginia Beach Airport? Find the distance to fly.

From to 42VA

Sunrise and sunset
Times for 24-Sep-2020
 Local
(UTC-4)
 Zulu
(UTC)
Morning civil twilight06:3010:30
Sunrise06:5510:55
Sunset18:5622:56
Evening civil twilight19:2223:22

Current date and time
Zulu (UTC)  24-Sep-2020 17:59:35
Local (UTC-4)  24-Sep-2020 13:59:35
 
METAR
KNFE 
5nm W 
241656Z AUTO 00000KT 10SM CLR 21/13 A3006 RMK AO2 SLP182 T02110133
KNTU 
8nm N 
241656Z 25006KT 10SM BKN150 OVC200 23/13 A3005 RMK AO2 SLP179 T02330133
KCPK 
14nm W 
241755Z AUTO 00000KT 10SM SCT085 OVC120 21/14 A3006 RMK AO2 T02050140 10210 20130
KORF 
16nm NW 
241751Z 27004KT 10SM FEW100 SCT120 23/13 A3005 RMK AO2 SLP175 T02280133 10233 20167 58006
KONX 
17nm S 
241755Z AUTO 19004KT 10SM BKN110 21/17 A3005 RMK AO2 T02120169 10299 20114
KNGU 
18nm NW 
241659Z 24003KT 10SM SCT030 BKN100 OVC280 22/14 A3007 RMK AO2 SLP181 T02170139 $
TAF
KNTU 
8nm N 
2323/2423 24005KT 9999 BKN300 QNH2994INS FM241200 21006KT 9999 BKN090 BKN150 OVC300 QNH3000INS T16/2410Z T24/2419Z COR 2300 FN20051
KORF 
16nm NW 
241120Z 2412/2512 22006KT P6SM BKN250 FM241700 25006KT P6SM SCT080 OVC100 FM242300 22004KT P6SM SCT080 BKN100
KNGU 
18nm NW 
2415/2515 VRB04KT 9999 BKN030 BKN100 OVC280 QNH3002INS FM250900 VRB05KT 9999 VCSH SCT030 BKN060 OVC100 QNH3007INS TEMPO 2509/2515 09010KT 8000 SHRA BKN030 OVC060 T23/2419Z T17/2506Z FN20079
NOTAMs
Click for the latest NOTAMs
NOTAMs are issued by the DoD/FAA and will open in a separate window not controlled by AirNav.

 

 
 

Would you like to see your business listed on this page?

 If your business provides an interesting product or service to pilots, flight crews, aircraft, or users of the Virginia Beach Airport, you should consider listing it here.  To start the listing process, click on the button below
 
Add a business
 

Other Pages about Virginia Beach Airport

www.vbairport.com
Military Aviation Museum
www.fighterfactory.com
 
Update a link
 
Copyright © AirNav, LLC. All rights reserved. Privacy Policy  Contact